STARLINK-30265 (57646 NORAD) Tracking and Keplerian Element Data

This shows tracking and keplerian element data for the satellite.

Feedback or suggestion? Click here.




ElementValue
Catalog57646
NameSTARLINK-30265
Epoch Orbit279
Epoch Day238.91667824
Epoch Year2023
RAAN95.9272
Inclination43.0011
Eccentricity0.0003655
Argument of Perigee169.0901
Mean Anonmoly255.2284
Mean Motion15.86050817
Decay Rate-0.00867045
L11 57646U 23122Q 23238.91667824 -.00867045 00000+0 -37374-2 0 9996
L22 57646 43.0011 95.9272 0003655 169.0901 255.2284 15.86050817 2795



Live tracking and technical data element details for STARLINK-30265 (NORAD 57646). STARLINK-30265 can be tracked NOW for your location showing map with azimuth and elevation plus other details from your city location.







IsCatalogInMostPopularTable: catalog: 57646, numindb: 7
Update: records affected: 1



GetName: 57646 STARLINK-30265

Hit Count: updated at: Tue, 26 Sep 2023 12:02:47 GMT